Regional Weather Roundup
Issued by NWS

Home | Current Version | Previous Version | Graphics & Text | Print | Product List | Glossary Off
Versions: 1 2 3 4 5 6 7 8 9 10 11 12 13 14 15 16 17 18 19 20 21 22 23 24 25 26 27 28 29 30 31 32 33 34 35 36 37 38 39 40 41 42 43 44 45 46 47 48 49 50

000
ASUS43 KTOP 030359
RWRKS

WEATHER ROUNDUP FOR KANSAS
NATIONAL WEATHER SERVICE GOODLAND KS
1100 PM CDT TUE SEP 02 2014

NOTE:  "FAIR" INDICATES FEW OR NO CLOUDS BELOW 12,000 FEET WITH NO
SIGNIFICANT WEATHER AND/OR OBSTRUCTIONS TO VISIBILITY.

KSZ001>006-013>018-027>032-041>047-030500-
NORTHWEST KANSAS

CITY           SKY/WX    TMP DP  RH WIND       PRES   REMARKS
GOODLAND       CLEAR     68  62  81 S12       29.96S
HAYS           MOCLDY    75  66  73 SE8       29.93S
HILL CITY      CLEAR     72  66  81 S8        29.93S
RUSSELL        PTCLDY    73  68  84 SE9       29.91F
$$

KSZ061>065-074>080-084>089-030500-
SOUTHWEST KANSAS

CITY           SKY/WX    TMP DP  RH WIND       PRES   REMARKS
DODGE CITY     CLEAR     74  68  81 SE9       29.94F
ELKHART          N/A     71  62  73 SE9         N/A
GARDEN CITY    CLEAR     71  67  87 SE9       29.94F
GREAT BEND     MOCLDY    75  68  78 SE9       29.93S
LIBERAL        CLEAR     75  66  73 E12       29.95F
$$

KSZ066>073-081>083-090>101-030500-
SOUTHEAST KANSAS

CITY           SKY/WX    TMP DP  RH WIND       PRES   REMARKS
CHANUTE        CLOUDY    74  69  85 SE7       29.98S
COFFEYVILLE    MOCLDY    73  70  90 SE8       29.96F
HUTCHINSON     TSTM      74  70  87 SE12      29.92S
NEWTON         MOCLDY    73  63  68 S22G47    29.97S THUNDER
PARSONS        CLOUDY    75  69  81 S3        29.98F
WICHITA INTL   MOCLDY    78  70  76 SE15      29.93R
WICHITA JABRA  PTCLDY    77  70  79 SE12      29.93S
WINFIELD       CLEAR     74  69  85 SE10      29.95S
$$

KSZ007>012-019>026-033>040-048>060-102>105-030500-
NORTHEAST KANSAS

CITY           SKY/WX    TMP DP  RH WIND       PRES   REMARKS
CONCORDIA      MOCLDY    71  67  87 SE8       29.92F
EMPORIA        CLEAR     71  67  87 SE7       29.96F
LAWRENCE       CLEAR     67  65  93 SE5       29.98R
MANHATTAN      CLEAR     75  69  81 SE6       29.93F
OLATHE IND     CLEAR     71  67  87 SE7       30.00R
OLATHE EXE     CLEAR     69  66  90 SE6       29.99R
SALINA         MOCLDY    76  66  71 SE9       29.92S
TOPEKA BILLARD CLEAR     72  70  93 E5        29.97R
TOPEKA FORBES  PTCLDY    71  67  87 SE6       29.97R
$$



USA.gov is the U.S. government's official web portal to all federal, state and local government web resources and services.